TKY77K BIAR-ENSB

Flight info

Callsign TKY77K
Flight time 2h 19m
Altitude 39000
Route UTISU2A UTISU DCT 70N012W 75N000E/N0460F390 DCT INPAR
Aircraft A319/M-SDE3FGHIRWY/LB1

Departure

Time 2026-05-09 17:44
Airport Akureyri International Airport (BIAR)

Arrival

Time 2026-05-09 20:03
Airport Svalbard Airport, Longyear (ENSB)
Time Latitude Longitude Altitude Speed Heading
2026-05-09 17:37 65.65389 -18.07433 21 ft 0 kts 91°
2026-05-09 17:40 65.65399 -18.07369 21 ft 11 kts 40°
2026-05-09 17:40 65.65458 -18.07363 21 ft 0 kts 357°
2026-05-09 17:40 65.65468 -18.07364 22 ft 3 kts 357°
2026-05-09 17:41 65.65491 -18.07327 22 ft 7 kts 60°
2026-05-09 17:41 65.65456 -18.07175 21 ft 18 kts 168°
2026-05-09 17:41 65.65287 -18.07136 22 ft 30 kts 175°
2026-05-09 17:41 65.65055 -18.07092 22 ft 34 kts 175°
2026-05-09 17:42 65.64814 -18.07045 22 ft 35 kts 175°
2026-05-09 17:42 65.64577 -18.07002 22 ft 27 kts 176°
2026-05-09 17:42 65.64484 -18.06931 24 ft 10 kts 174°
2026-05-09 17:42 65.64505 -18.07002 24 ft 9 kts 11°
2026-05-09 17:43 65.64545 -18.06993 22 ft 0 kts 355°
2026-05-09 17:43 65.64559 -18.06996 22 ft 13 kts 355°
2026-05-09 17:43 65.64950 -18.07069 22 ft 95 kts 355°
2026-05-09 17:43 65.65827 -18.07231 140 ft 144 kts 355°
2026-05-09 17:44 65.66798 -18.07456 965 ft 139 kts 353°
2026-05-09 17:44 65.67754 -18.07768 1710 ft 139 kts 353°
2026-05-09 17:44 65.68768 -18.08081 2321 ft 158 kts 354°
2026-05-09 17:44 65.69940 -18.08398 2834 ft 181 kts 354°
2026-05-09 17:45 65.71270 -18.08754 3270 ft 205 kts 354°
2026-05-09 17:45 65.72777 -18.09157 3827 ft 230 kts 353°
2026-05-09 17:45 65.74449 -18.09611 4494 ft 252 kts 352°
2026-05-09 17:45 65.76223 -18.10098 5477 ft 260 kts 351°
2026-05-09 17:46 65.78032 -18.10591 6620 ft 263 kts 350°
2026-05-09 17:46 65.79855 -18.11084 7719 ft 264 kts 349°
2026-05-09 17:46 65.81684 -18.11549 8839 ft 266 kts 352°
2026-05-09 17:46 65.83536 -18.10795 9923 ft 280 kts 19°
2026-05-09 17:47 65.85102 -18.07763 10782 ft 304 kts 47°
2026-05-09 17:47 65.86017 -18.02811 11177 ft 340 kts 72°
2026-05-09 17:47 65.86431 -17.97019 11683 ft 360 kts 80°
2026-05-09 17:47 65.86616 -17.90840 12460 ft 369 kts 84°
2026-05-09 17:48 65.86706 -17.84435 13267 ft 376 kts 84°
2026-05-09 17:48 65.86794 -17.78009 14135 ft 381 kts 83°
2026-05-09 17:48 65.86925 -17.71501 14837 ft 386 kts 82°
2026-05-09 17:48 65.87106 -17.64909 15563 ft 391 kts 81°
2026-05-09 17:49 65.87325 -17.58255 16285 ft 395 kts 79°
2026-05-09 17:49 65.87598 -17.51540 17000 ft 398 kts 75°
2026-05-09 17:49 65.88288 -17.45123 17701 ft 394 kts 62°
2026-05-09 17:49 65.89487 -17.39154 18436 ft 388 kts 50°
2026-05-09 17:50 65.91115 -17.33962 19144 ft 381 kts 38°
2026-05-09 17:50 65.95304 -17.26564 20540 ft 366 kts 16°
2026-05-09 17:50 65.97644 -17.24073 21255 ft 367 kts 15°
2026-05-09 17:51 65.99992 -17.21567 21933 ft 369 kts 15°
2026-05-09 17:51 66.02353 -17.19029 22591 ft 372 kts 15°
2026-05-09 17:51 66.04732 -17.16457 23239 ft 374 kts 15°
2026-05-09 17:51 66.07122 -17.13865 23894 ft 377 kts 15°
2026-05-09 17:52 66.09527 -17.11257 24419 ft 379 kts 14°
2026-05-09 17:52 66.11949 -17.08629 24938 ft 381 kts 14°
2026-05-09 17:52 66.14376 -17.05984 25438 ft 383 kts 14°
2026-05-09 17:52 66.16818 -17.03317 25938 ft 385 kts 14°
2026-05-09 17:53 66.19272 -17.00638 26433 ft 387 kts 14°
2026-05-09 17:53 66.21745 -16.97942 26914 ft 389 kts 14°
2026-05-09 17:53 66.24194 -16.95265 27380 ft 391 kts 14°
2026-05-09 17:53 66.26693 -16.92524 27843 ft 393 kts 14°
2026-05-09 17:54 66.29200 -16.89761 28297 ft 396 kts 14°
2026-05-09 17:54 66.31721 -16.86977 28778 ft 398 kts 13°
2026-05-09 17:54 66.34260 -16.84165 29191 ft 400 kts 13°
2026-05-09 17:54 66.36810 -16.81328 29682 ft 402 kts 13°
2026-05-09 17:55 66.39364 -16.78477 30176 ft 402 kts 13°
2026-05-09 17:55 66.41920 -16.75617 30571 ft 403 kts 13°
2026-05-09 17:55 66.44487 -16.72745 30900 ft 405 kts 13°
2026-05-09 17:55 66.47073 -16.69857 31216 ft 407 kts 13°
2026-05-09 17:56 66.49655 -16.66961 31640 ft 406 kts 13°
2026-05-09 17:56 66.52236 -16.64058 32078 ft 406 kts 13°
2026-05-09 17:56 66.54808 -16.61156 32515 ft 405 kts 13°
2026-05-09 17:57 66.59949 -16.55337 33399 ft 404 kts 13°
2026-05-09 17:57 66.62515 -16.52426 33844 ft 404 kts 13°
2026-05-09 17:57 66.65077 -16.49509 34297 ft 403 kts 13°
2026-05-09 17:57 66.67600 -16.46632 34674 ft 404 kts 13°
2026-05-09 17:58 66.70162 -16.43709 35014 ft 405 kts 13°
2026-05-09 17:58 66.72741 -16.40766 35296 ft 408 kts 14°
2026-05-09 17:58 66.75334 -16.37792 35599 ft 410 kts 14°
2026-05-09 17:58 66.77942 -16.34790 35908 ft 412 kts 14°
2026-05-09 17:59 66.80558 -16.31771 36233 ft 413 kts 14°
2026-05-09 17:59 66.83184 -16.28741 36538 ft 415 kts 15°
2026-05-09 17:59 66.85819 -16.25701 36872 ft 418 kts 15°
2026-05-09 17:59 66.88476 -16.22622 37153 ft 420 kts 16°
2026-05-09 18:00 66.91136 -16.19515 37454 ft 422 kts 16°
2026-05-09 18:00 66.93772 -16.16423 37773 ft 423 kts 17°
2026-05-09 18:00 66.96451 -16.13283 38087 ft 424 kts 17°
2026-05-09 18:00 66.99132 -16.10136 38411 ft 425 kts 17°
2026-05-09 18:01 67.01825 -16.06973 38718 ft 426 kts 17°
2026-05-09 18:01 67.04519 -16.03798 38994 ft 427 kts 17°
2026-05-09 18:01 67.07220 -16.00607 39194 ft 429 kts 18°
2026-05-09 18:02 67.12645 -15.94164 39284 ft 430 kts 18°
2026-05-09 18:02 67.18069 -15.87691 39287 ft 429 kts 18°
2026-05-09 18:03 67.23493 -15.81194 39278 ft 429 kts 18°
2026-05-09 18:03 67.28913 -15.74679 39278 ft 429 kts 18°
2026-05-09 18:04 67.34335 -15.68117 39291 ft 430 kts 18°
2026-05-09 18:04 67.39757 -15.61524 39287 ft 430 kts 18°
2026-05-09 18:05 67.45151 -15.54933 39301 ft 431 kts 18°
2026-05-09 18:05 67.50589 -15.48266 39286 ft 432 kts 18°
2026-05-09 18:06 67.56025 -15.41544 39278 ft 432 kts 19°
2026-05-09 18:06 67.61465 -15.34788 39268 ft 433 kts 19°
2026-05-09 18:07 67.66915 -15.28018 39265 ft 433 kts 19°
2026-05-09 18:07 67.72332 -15.21232 39242 ft 435 kts 19°
2026-05-09 18:08 67.77812 -15.14319 39235 ft 437 kts 19°
2026-05-09 18:08 67.83315 -15.07349 39243 ft 439 kts 19°
2026-05-09 18:09 67.88837 -15.00313 39246 ft 441 kts 19°
2026-05-09 18:09 67.94369 -14.93226 39238 ft 442 kts 19°
2026-05-09 18:10 67.99917 -14.86093 39222 ft 443 kts 20°
2026-05-09 18:10 68.05469 -14.78893 39221 ft 444 kts 20°
2026-05-09 18:11 68.10988 -14.71711 39229 ft 444 kts 20°
2026-05-09 18:11 68.16547 -14.64453 39224 ft 444 kts 20°
2026-05-09 18:12 68.22107 -14.57152 39230 ft 445 kts 20°
2026-05-09 18:12 68.27665 -14.49811 39263 ft 446 kts 20°
2026-05-09 18:13 68.32339 -14.43586 39246 ft 447 kts 20°
2026-05-09 18:13 68.37890 -14.36156 39240 ft 448 kts 20°
2026-05-09 18:14 68.43490 -14.28670 39239 ft 448 kts 20°
2026-05-09 18:14 68.49084 -14.21126 39239 ft 449 kts 21°
2026-05-09 18:15 68.54675 -14.13514 39241 ft 449 kts 21°
2026-05-09 18:15 68.60270 -14.05881 39243 ft 449 kts 21°
2026-05-09 18:16 68.65860 -13.98209 39255 ft 450 kts 21°
2026-05-09 18:16 68.71455 -13.90483 39255 ft 450 kts 21°
2026-05-09 18:17 68.77007 -13.82784 39246 ft 450 kts 21°
2026-05-09 18:17 68.82597 -13.74977 39245 ft 450 kts 21°
2026-05-09 18:18 68.88196 -13.67104 39245 ft 451 kts 22°
2026-05-09 18:18 68.93789 -13.59210 39241 ft 451 kts 22°
2026-05-09 18:19 68.99386 -13.51247 39240 ft 452 kts 22°
2026-05-09 18:19 69.07774 -13.39205 39252 ft 452 kts 22°
2026-05-09 18:20 69.13369 -13.31154 39242 ft 452 kts 22°
2026-05-09 18:20 69.18960 -13.23053 39242 ft 452 kts 22°
2026-05-09 18:21 69.24518 -13.14941 39240 ft 452 kts 22°
2026-05-09 18:21 69.30105 -13.06760 39234 ft 453 kts 22°
2026-05-09 18:22 69.35706 -12.98502 39229 ft 454 kts 22°
2026-05-09 18:22 69.41311 -12.90193 39237 ft 454 kts 23°
2026-05-09 18:23 69.46915 -12.81819 39235 ft 455 kts 23°
2026-05-09 18:23 69.52486 -12.73454 39224 ft 455 kts 23°
2026-05-09 18:24 69.58085 -12.65029 39225 ft 455 kts 23°
2026-05-09 18:25 69.66477 -12.52239 39229 ft 455 kts 23°
2026-05-09 18:25 69.72069 -12.43648 39237 ft 456 kts 24°
2026-05-09 18:26 69.77659 -12.35017 39235 ft 456 kts 24°
2026-05-09 18:26 69.83257 -12.26332 39222 ft 457 kts 24°
2026-05-09 18:27 69.88850 -12.17578 39203 ft 457 kts 24°
2026-05-09 18:27 69.94456 -12.08797 39200 ft 458 kts 24°
2026-05-09 18:28 70.00050 -11.99916 39192 ft 458 kts 25°
2026-05-09 18:28 70.05593 -11.90659 39195 ft 459 kts 26°
2026-05-09 18:29 70.11090 -11.81148 39192 ft 459 kts 26°
2026-05-09 18:29 70.16584 -11.71574 39195 ft 459 kts 27°
2026-05-09 18:30 70.22042 -11.62060 39184 ft 459 kts 27°
2026-05-09 18:30 70.27543 -11.52447 39173 ft 459 kts 27°
2026-05-09 18:31 70.33040 -11.42779 39173 ft 460 kts 27°
2026-05-09 18:31 70.38528 -11.33034 39173 ft 460 kts 27°
2026-05-09 18:32 70.44020 -11.23247 39183 ft 460 kts 27°
2026-05-09 18:32 70.49513 -11.13403 39181 ft 460 kts 27°
2026-05-09 18:33 70.55002 -11.03474 39194 ft 461 kts 27°
2026-05-09 18:33 70.60488 -10.93486 39200 ft 461 kts 27°
2026-05-09 18:34 70.65965 -10.83472 39181 ft 461 kts 28°
2026-05-09 18:34 70.71455 -10.73348 39170 ft 462 kts 28°
2026-05-09 18:35 70.76937 -10.63181 39169 ft 462 kts 28°
2026-05-09 18:35 70.82413 -10.52974 39154 ft 462 kts 28°
2026-05-09 18:36 70.87845 -10.42779 39147 ft 462 kts 28°
2026-05-09 18:36 70.93310 -10.32457 39146 ft 462 kts 28°
2026-05-09 18:37 70.98766 -10.22095 39127 ft 462 kts 28°
2026-05-09 18:37 71.04230 -10.11668 39128 ft 462 kts 28°
2026-05-09 18:38 71.09676 -10.01151 39146 ft 462 kts 28°
2026-05-09 18:38 71.15121 -9.90563 39138 ft 463 kts 29°
2026-05-09 18:40 71.36853 -9.47650 39094 ft 462 kts 29°
2026-05-09 18:41 71.42276 -9.36794 39090 ft 462 kts 29°
2026-05-09 18:41 71.47693 -9.25882 39089 ft 462 kts 29°
2026-05-09 18:42 71.53096 -9.14860 39086 ft 463 kts 30°
2026-05-09 18:42 71.58455 -9.03852 39078 ft 463 kts 30°
2026-05-09 18:43 71.63891 -8.92673 39078 ft 462 kts 30°
2026-05-09 18:43 71.69222 -8.81620 39080 ft 460 kts 30°
2026-05-09 18:44 71.74566 -8.70426 39043 ft 460 kts 30°
2026-05-09 18:44 71.79849 -8.59284 39030 ft 452 kts 30°
2026-05-09 18:45 71.85086 -8.48197 39031 ft 451 kts 30°
2026-05-09 18:45 71.90306 -8.37041 39020 ft 451 kts 31°
2026-05-09 18:46 71.95530 -8.25835 39016 ft 451 kts 31°
2026-05-09 18:46 72.00745 -8.14556 39021 ft 452 kts 31°
2026-05-09 18:47 72.05973 -8.03176 39005 ft 453 kts 32°
2026-05-09 18:47 72.11202 -7.91715 39009 ft 454 kts 32°
2026-05-09 18:48 72.16431 -7.80147 39009 ft 454 kts 32°
2026-05-09 18:48 72.21656 -7.68527 39010 ft 455 kts 32°
2026-05-09 18:49 72.26878 -7.56846 38997 ft 455 kts 32°
2026-05-09 18:49 72.32093 -7.45095 39011 ft 454 kts 32°
2026-05-09 18:50 72.37283 -7.33315 39019 ft 453 kts 33°
2026-05-09 18:50 72.42454 -7.21454 39024 ft 452 kts 33°
2026-05-09 18:51 72.47613 -7.09562 39020 ft 452 kts 33°
2026-05-09 18:51 72.52772 -6.97611 39012 ft 452 kts 33°
2026-05-09 18:52 72.57914 -6.85591 39016 ft 451 kts 33°
2026-05-09 18:52 72.63051 -6.73514 39009 ft 451 kts 33°
2026-05-09 18:53 72.68175 -6.61380 39006 ft 451 kts 34°
2026-05-09 18:53 72.73292 -6.49127 39017 ft 451 kts 34°
2026-05-09 18:54 72.78403 -6.36839 39016 ft 451 kts 34°
2026-05-09 18:54 72.83514 -6.24476 39016 ft 452 kts 34°
2026-05-09 18:55 72.88579 -6.12136 39024 ft 452 kts 34°
2026-05-09 18:55 72.93677 -5.99603 39021 ft 452 kts 34°
2026-05-09 18:56 72.98767 -5.87001 39025 ft 453 kts 35°
2026-05-09 18:56 73.03858 -5.74307 39033 ft 453 kts 35°
2026-05-09 18:57 73.08945 -5.61564 39032 ft 453 kts 35°
2026-05-09 18:57 73.14021 -5.48697 39032 ft 453 kts 35°
2026-05-09 18:58 73.19086 -5.35774 39038 ft 453 kts 35°
2026-05-09 18:58 73.24148 -5.22781 39038 ft 453 kts 35°
2026-05-09 18:59 73.29195 -5.09704 39040 ft 453 kts 36°
2026-05-09 18:59 73.34234 -4.96545 39052 ft 453 kts 36°
2026-05-09 19:00 73.39267 -4.83319 39046 ft 453 kts 36°
2026-05-09 19:00 73.46770 -4.63455 39052 ft 453 kts 36°
2026-05-09 19:01 73.51785 -4.50029 39044 ft 453 kts 36°
2026-05-09 19:01 73.56783 -4.36517 39049 ft 453 kts 36°
2026-05-09 19:02 73.60975 -4.25147 39051 ft 453 kts 36°
2026-05-09 19:02 73.65930 -4.11600 39058 ft 453 kts 36°
2026-05-09 19:03 73.70904 -3.97873 39057 ft 453 kts 36°
2026-05-09 19:03 73.75872 -3.84079 39064 ft 452 kts 37°
2026-05-09 19:04 73.80825 -3.70224 39062 ft 452 kts 36°
2026-05-09 19:04 73.85772 -3.56245 39060 ft 453 kts 36°
2026-05-09 19:05 73.90713 -3.42205 39070 ft 453 kts 37°
2026-05-09 19:05 73.95647 -3.28059 39073 ft 453 kts 37°
2026-05-09 19:06 74.00568 -3.13848 39073 ft 452 kts 37°
2026-05-09 19:06 74.05480 -2.99552 39075 ft 452 kts 37°
2026-05-09 19:07 74.10379 -2.85197 39072 ft 452 kts 37°
2026-05-09 19:07 74.15274 -2.70734 39073 ft 452 kts 37°
2026-05-09 19:08 74.20152 -2.56160 39088 ft 453 kts 38°
2026-05-09 19:08 74.25028 -2.41470 39092 ft 453 kts 38°
2026-05-09 19:09 74.29897 -2.26708 39088 ft 453 kts 38°
2026-05-09 19:09 74.34763 -2.11865 39102 ft 454 kts 38°
2026-05-09 19:10 74.39624 -1.96902 39110 ft 454 kts 38°
2026-05-09 19:10 74.44471 -1.81861 39115 ft 454 kts 38°
2026-05-09 19:11 74.49309 -1.66698 39112 ft 454 kts 39°
2026-05-09 19:11 74.54135 -1.51463 39126 ft 454 kts 39°
2026-05-09 19:12 74.58949 -1.36128 39124 ft 454 kts 39°
2026-05-09 19:12 74.63750 -1.20720 39128 ft 453 kts 39°
2026-05-09 19:13 74.68539 -1.05241 39140 ft 453 kts 39°
2026-05-09 19:13 74.73314 -0.89637 39136 ft 453 kts 40°
2026-05-09 19:14 74.78071 -0.73948 39136 ft 453 kts 40°
2026-05-09 19:14 74.82822 -0.58186 39148 ft 453 kts 39°
2026-05-09 19:15 74.87566 -0.42353 39144 ft 453 kts 40°
2026-05-09 19:15 74.92262 -0.26496 39147 ft 453 kts 40°
2026-05-09 19:16 74.96977 -0.10439 39146 ft 453 kts 40°
2026-05-09 19:16 75.01714 0.05597 39149 ft 453 kts 39°
2026-05-09 19:17 75.06546 0.21232 39155 ft 453 kts 38°
2026-05-09 19:17 75.11428 0.36751 39159 ft 454 kts 38°
2026-05-09 19:18 75.16285 0.52436 39159 ft 454 kts 39°
2026-05-09 19:18 75.21114 0.68370 39174 ft 454 kts 39°
2026-05-09 19:19 75.25927 0.84418 39177 ft 454 kts 39°
2026-05-09 19:19 75.30738 1.00541 39178 ft 455 kts 39°
2026-05-09 19:20 75.35544 1.16772 39190 ft 455 kts 40°
2026-05-09 19:20 75.40336 1.33098 39197 ft 455 kts 40°
2026-05-09 19:21 75.45088 1.49436 39203 ft 455 kts 40°
2026-05-09 19:21 75.49886 1.66113 39209 ft 455 kts 40°
2026-05-09 19:22 75.54623 1.82687 39215 ft 456 kts 40°
2026-05-09 19:22 75.59056 1.98300 39214 ft 456 kts 41°
2026-05-09 19:23 75.63804 2.15207 39224 ft 456 kts 41°
2026-05-09 19:23 75.68542 2.32255 39225 ft 456 kts 41°
2026-05-09 19:24 75.73273 2.49379 39229 ft 456 kts 41°
2026-05-09 19:24 75.77987 2.66643 39244 ft 457 kts 41°
2026-05-09 19:25 75.82691 2.84047 39246 ft 456 kts 41°
2026-05-09 19:25 75.87380 3.01524 39244 ft 456 kts 41°
2026-05-09 19:26 75.92062 3.19102 39257 ft 456 kts 42°
2026-05-09 19:28 76.10710 3.90877 39265 ft 457 kts 43°
2026-05-09 19:28 76.15333 4.09102 39271 ft 457 kts 43°
2026-05-09 19:29 76.19936 4.27431 39275 ft 457 kts 43°
2026-05-09 19:29 76.24532 4.45876 39277 ft 457 kts 43°
2026-05-09 19:30 76.29108 4.64437 39278 ft 457 kts 43°
2026-05-09 19:30 76.33670 4.83133 39282 ft 457 kts 44°
2026-05-09 19:31 76.38227 5.01960 39282 ft 458 kts 44°
2026-05-09 19:31 76.42770 5.20901 39282 ft 458 kts 44°
2026-05-09 19:32 76.47269 5.39882 39294 ft 458 kts 44°
2026-05-09 19:32 76.51778 5.59096 39295 ft 458 kts 44°
2026-05-09 19:33 76.56280 5.78423 39293 ft 457 kts 45°
2026-05-09 19:33 76.60762 5.97850 39303 ft 457 kts 45°
2026-05-09 19:34 76.65231 6.17420 39300 ft 457 kts 45°
2026-05-09 19:34 76.69677 6.37110 39300 ft 457 kts 45°
2026-05-09 19:35 76.74113 6.56949 39307 ft 457 kts 45°
2026-05-09 19:35 76.78532 6.76949 39309 ft 457 kts 45°
2026-05-09 19:36 76.82934 6.97089 39308 ft 457 kts 46°
2026-05-09 19:36 76.87318 7.17335 39310 ft 457 kts 46°
2026-05-09 19:37 76.91669 7.37554 39312 ft 457 kts 46°
2026-05-09 19:37 76.96026 7.58038 39310 ft 457 kts 46°
2026-05-09 19:38 77.00368 7.78642 39314 ft 457 kts 46°
2026-05-09 19:38 77.04692 7.99399 39313 ft 457 kts 47°
2026-05-09 19:39 77.08995 8.20298 39319 ft 457 kts 47°
2026-05-09 19:39 77.13250 8.41201 39322 ft 457 kts 47°
2026-05-09 19:40 77.17516 8.62340 39322 ft 457 kts 47°
2026-05-09 19:40 77.21769 8.83591 39320 ft 457 kts 47°
2026-05-09 19:41 77.26002 9.05013 39320 ft 456 kts 48°
2026-05-09 19:41 77.30220 9.26595 39318 ft 456 kts 48°
2026-05-09 19:42 77.34417 9.48269 39321 ft 456 kts 48°
2026-05-09 19:42 77.38597 9.70111 39325 ft 456 kts 48°
2026-05-09 19:43 77.40679 9.81075 39209 ft 457 kts 49°
2026-05-09 19:43 77.42774 9.92178 38070 ft 466 kts 49°
2026-05-09 19:43 77.44907 10.03560 36873 ft 472 kts 49°
2026-05-09 19:43 77.47044 10.15039 35658 ft 474 kts 49°
2026-05-09 19:44 77.49186 10.26603 34445 ft 475 kts 49°
2026-05-09 19:44 77.51328 10.38219 32974 ft 476 kts 50°
2026-05-09 19:44 77.53473 10.49896 31428 ft 476 kts 49°
2026-05-09 19:44 77.55611 10.61608 29713 ft 477 kts 49°
2026-05-09 19:45 77.57746 10.73361 28120 ft 475 kts 49°
2026-05-09 19:45 77.59863 10.85064 26801 ft 470 kts 50°
2026-05-09 19:45 77.61945 10.96634 25609 ft 462 kts 50°
2026-05-09 19:45 77.63990 11.08080 24493 ft 455 kts 50°
2026-05-09 19:46 77.65991 11.19380 23355 ft 448 kts 50°
2026-05-09 19:46 77.67953 11.30551 22259 ft 440 kts 50°
2026-05-09 19:46 77.69861 11.41456 21635 ft 424 kts 50°
2026-05-09 19:46 77.71704 11.52004 21034 ft 413 kts 50°
2026-05-09 19:47 77.73508 11.62361 20469 ft 406 kts 50°
2026-05-09 19:47 77.74684 11.69153 20096 ft 403 kts 50°
2026-05-09 19:47 77.76999 11.82628 19382 ft 396 kts 50°
2026-05-09 19:47 77.78161 11.89438 19019 ft 393 kts 50°
2026-05-09 19:48 77.79865 11.99441 18451 ft 389 kts 50°
2026-05-09 19:48 77.82099 12.12614 17360 ft 389 kts 50°
2026-05-09 19:48 77.83782 12.22590 16820 ft 384 kts 51°
2026-05-09 19:48 77.84903 12.29239 16431 ft 380 kts 51°
2026-05-09 19:49 77.86538 12.38989 15862 ft 375 kts 51°
2026-05-09 19:49 77.88145 12.48637 15284 ft 370 kts 51°
2026-05-09 19:49 77.89728 12.58196 14708 ft 365 kts 51°
2026-05-09 19:49 77.91289 12.67680 14116 ft 361 kts 51°
2026-05-09 19:50 77.92828 12.77063 13503 ft 356 kts 51°
2026-05-09 19:50 77.94339 12.86318 12922 ft 350 kts 51°
2026-05-09 19:50 77.95824 12.95430 12344 ft 345 kts 51°
2026-05-09 19:50 77.97286 13.04422 11756 ft 340 kts 51°
2026-05-09 19:51 77.98700 13.13187 11390 ft 323 kts 51°
2026-05-09 19:51 78.00026 13.21453 11056 ft 304 kts 51°
2026-05-09 19:51 78.01268 13.29271 10855 ft 284 kts 51°
2026-05-09 19:51 78.02439 13.36665 10545 ft 273 kts 51°
2026-05-09 19:52 78.03589 13.43931 10456 ft 270 kts 51°
2026-05-09 19:52 78.04705 13.50970 10236 ft 260 kts 51°
2026-05-09 19:52 78.05884 13.57610 10176 ft 260 kts 41°
2026-05-09 19:52 78.07299 13.63022 10110 ft 260 kts 30°
2026-05-09 19:53 78.08868 13.67264 9992 ft 258 kts 27°
2026-05-09 19:53 78.10454 13.71492 9507 ft 262 kts 27°
2026-05-09 19:53 78.12011 13.75698 9153 ft 251 kts 27°
2026-05-09 19:53 78.13535 13.79833 8536 ft 250 kts 28°
2026-05-09 19:54 78.15041 13.83934 8039 ft 246 kts 28°
2026-05-09 19:54 78.16509 13.87925 7580 ft 244 kts 28°
2026-05-09 19:54 78.17980 13.91936 7144 ft 240 kts 28°
2026-05-09 19:54 78.19435 13.95927 6673 ft 239 kts 29°
2026-05-09 19:55 78.20860 13.99836 6574 ft 234 kts 29°
2026-05-09 19:55 78.22288 14.03769 6508 ft 236 kts 29°
2026-05-09 19:55 78.23699 14.07666 6421 ft 229 kts 29°
2026-05-09 19:56 78.26300 14.15862 5796 ft 217 kts 34°
2026-05-09 19:56 78.27525 14.20005 5471 ft 211 kts 34°
2026-05-09 19:56 78.28712 14.24068 5174 ft 204 kts 37°
2026-05-09 19:56 78.29641 14.29058 4849 ft 194 kts 57°
2026-05-09 19:57 78.30150 14.35000 4565 ft 185 kts 76°
2026-05-09 19:57 78.30242 14.41163 4286 ft 178 kts 95°
2026-05-09 19:57 78.29989 14.47010 4028 ft 171 kts 105°
2026-05-09 19:57 78.29699 14.52490 3790 ft 157 kts 104°
2026-05-09 19:58 78.29440 14.57428 3541 ft 142 kts 104°
2026-05-09 19:58 78.29199 14.61936 3345 ft 132 kts 105°
2026-05-09 19:58 78.28960 14.66257 3158 ft 130 kts 105°
2026-05-09 19:58 78.28730 14.70506 3080 ft 127 kts 105°
2026-05-09 19:59 78.28504 14.74743 2993 ft 128 kts 105°
2026-05-09 19:59 78.28279 14.78960 2856 ft 127 kts 105°
2026-05-09 19:59 78.28056 14.83166 2691 ft 127 kts 105°
2026-05-09 19:59 78.27832 14.87363 2517 ft 126 kts 105°
2026-05-09 20:00 78.27609 14.91546 2339 ft 126 kts 105°
2026-05-09 20:00 78.27388 14.95672 2162 ft 124 kts 105°
2026-05-09 20:00 78.27169 14.99757 1983 ft 123 kts 105°
2026-05-09 20:00 78.26950 15.03817 1793 ft 123 kts 105°
2026-05-09 20:01 78.26733 15.07854 1584 ft 122 kts 105°
2026-05-09 20:01 78.26516 15.11860 1396 ft 121 kts 105°
2026-05-09 20:01 78.26299 15.15849 1210 ft 121 kts 105°
2026-05-09 20:01 78.26083 15.19814 1031 ft 120 kts 106°
2026-05-09 20:02 78.25868 15.23766 849 ft 120 kts 105°
2026-05-09 20:02 78.25652 15.27704 702 ft 119 kts 106°
2026-05-09 20:02 78.25436 15.31633 561 ft 119 kts 105°
2026-05-09 20:03 78.25011 15.39463 219 ft 119 kts 105°
2026-05-09 20:03 78.24798 15.43349 91 ft 117 kts 108°
2026-05-09 20:03 78.24626 15.46322 93 ft 53 kts 105°
2026-05-09 20:03 78.24551 15.47652 98 ft 17 kts 106°
2026-05-09 20:04 78.24555 15.48063 98 ft 12 kts 45°
2026-05-09 20:04 78.24591 15.48468 97 ft 13 kts 84°
2026-05-09 20:04 78.24610 15.48692 96 ft 4 kts 51°
2026-05-09 20:04 78.24624 15.48805 96 ft 5 kts 80°
2026-05-09 20:05 78.24619 15.49035 97 ft 9 kts 77°
2026-05-09 20:05 78.24633 15.49318 96 ft 0 kts 79°